#timestamp,LO_Frequency,Hit,StdDev 
1543424415.1,286047002.8,N
1543424416.0,286047002.8,N
1543424435.8,286047002.4,N
1543424455.7,286047000.9,N
1543424475.5,286047000.6,N
1543424495.3,286046998.2,N
1543424515.2,286046998.7,N
1543424535.9,286046998.6,N
1543424555.7,286046999.3,N
1543424575.6,286046996.7,N
1543424595.4,286046997.3,N
1543424615.2,286046997.7,N
1543424635.1,286046997.7,N
1543424636.0,286046997.7,N
1543424655.8,286046997.7,N
1543424675.7,286046997.7,N
1543424695.5,286046996.8,N
1543424715.3,286046997.9,N
1543424735.2,286046995.7,N
1543424755.0,286046993.3,Y
1543424755.9,286046993.3,P
1543424775.8,286046997.3,N
1543424795.6,286046995.2,N
1543424815.4,286046995.1,N
1543424835.3,286046995.5,N
1543424855.1,286046995.7,N
1543424856.0,286046995.7,N
1543424875.8,286046995.4,Y
1543424895.7,286047002.3,P
1543424915.5,286047002.0,N
1543424935.4,286047003.9,N
1543424955.2,286047002.1,N
1543424975.0,286047001.5,N
1543424975.9,286047001.5,N
1543424995.8,286047002.3,N
1543425015.6,286047002.6,N
1543425035.4,286046999.8,N
1543425055.3,286046999.9,N
1543425075.1,286047000.5,N
1543425095.9,286047001.0,N
1543425115.7,286047000.2,N
1543425135.5,286046999.9,N
1543425155.4,286046999.7,N
1543425175.2,286047002.7,N
1543425195.0,286047004.3,N
1543425195.9,286047004.3,N
1543425215.8,286047003.7,N
1543425235.6,286047002.7,N
1543425255.5,286047002.4,N
1543425275.3,286047002.1,N
1543425295.1,286047002.0,N
1543425315.9,286047002.4,N
1543425335.7,286047001.8,N
1543425355.5,286047001.8,N
1543425375.4,286047003.8,N
1543425395.2,286047002.2,N
1543425415.0,286047003.9,N
1543425416.0,286047003.9,N
1543425435.8,286047001.8,N
1543425455.6,286047002.2,N
1543425475.5,286047002.3,N
1543425495.3,286046999.8,N
1543425515.1,286047002.0,N
1543425535.9,286047001.6,N
1543425555.7,286047003.9,N
1543425575.6,286047001.4,N
1543425595.4,286047001.3,N
1543425615.2,286047004.3,Y
1543425635.1,286047000.1,P
1543425636.0,286047000.1,N
1543425655.8,286047000.2,N
1543425675.6,286047000.3,N
1543425695.5,286047002.8,Y
1543425715.3,286047000.0,P
1543425735.2,286046999.8,N
1543425755.9,286046999.7,N
1543425775.7,286047000.3,N
1543425795.6,286046998.2,Y
1543425815.4,286046998.1,P
1543425835.3,286047000.4,N
1543425855.1,286047000.7,N
1543425856.0,286047000.7,N
1543425875.8,286047004.3,Y
1543425895.7,286047001.6,P
1543425915.5,286047002.8,P
1543425935.4,286047001.0,N
1543425955.2,286047002.3,N
1543425975.0,286047001.6,N
1543425975.9,286047001.6,N
1543425995.8,286047000.3,N
1543426015.6,286046998.5,N
1543426035.4,286047001.2,N
1543426055.3,286046998.2,N
1543426075.1,286046998.7,N
1543426095.9,286047000.7,N
1543426115.7,286046998.6,N
1543426135.5,286047000.4,N
1543426155.4,286046999.9,N
1543426175.2,286047000.7,N
1543426195.0,286046998.2,N
1543426195.9,286046998.2,N
1543426215.8,286046998.9,N
1543426235.6,286046999.6,N
1543426255.5,286046998.7,N
1543426275.3,286046996.9,N
1543426295.1,286046999.6,N
1543426315.9,286046996.7,N
1543426335.7,286046997.1,N
1543426355.5,286046997.0,N
1543426375.4,286046997.4,N
1543426395.2,286046997.0,N
1543426415.1,286046998.0,N
1543426416.0,286046998.0,N
1543426435.8,286046996.9,N
1543426455.6,286046996.7,N
1543426475.5,286046999.4,N
1543426495.3,286046998.8,N
1543426515.1,286046998.3,N
1543426535.9,286046997.1,N
1543426555.7,286046998.0,N
1543426575.6,286046997.9,N
1543426595.4,286046997.5,N
1543426615.2,286046995.1,Y
1543426635.1,286046997.5,P
1543426636.0,286046997.5,P
1543426655.8,286046997.0,P
1543426675.7,286046997.5,Y
1543426695.5,286046998.2,P
1543426715.3,286046998.6,P
1543426735.2,286046998.4,P
1543426755.9,286046999.4,N
1543426775.7,286046998.6,N
1543426795.6,286046999.4,N
1543426815.4,286046999.2,N
1543426835.3,286046996.8,Y
1543426855.1,286046998.3,P
1543426856.0,286046998.3,P
1543426875.8,286047001.2,P
1543426895.7,286047000.2,N
1543426915.5,286047000.3,N
1543426935.3,286047002.7,N
1543426955.2,286047000.7,N
1543426975.0,286047000.7,N
1543426975.9,286047000.7,N
1543426995.8,286047001.1,N
1543427015.6,286047000.3,N
1543427035.4,286047000.8,N
1543427055.3,286047000.6,N
1543427075.1,286047000.6,N
1543427095.8,286047001.1,N
1543427115.7,286046998.6,N
1543427135.5,286046999.0,N
1543427155.4,286046999.4,N
1543427175.2,286046999.0,N
1543427195.0,286046998.4,N
1543427195.9,286046998.4,N
1543427215.8,286046998.3,N
1543427235.6,286047001.2,N
1543427255.4,286047001.0,N
1543427275.3,286046998.7,N
1543427295.1,286046999.2,N
1543427315.9,286046996.5,N
1543427335.7,286046999.5,N
1543427355.5,286046999.3,N
1543427375.4,286046997.1,N
1543427395.2,286046995.4,Y
1543427415.1,286046997.7,P
1543427416.0,286046997.7,N
1543427435.8,286046999.5,N
1543427455.6,286046997.0,Y
1543427475.5,286047001.0,P
1543427495.3,286046998.5,N
1543427515.2,286046998.2,N
1543427535.9,286047001.1,N
1543427555.7,286046996.6,N
1543427575.6,286047001.1,N
1543427595.4,286047000.9,N
1543427615.2,286047001.1,N
1543427635.1,286046999.7,N
1543427636.0,286046999.7,N
1543427655.8,286047002.7,N
1543427675.7,286047001.6,N
1543427695.5,286047000.2,N
1543427715.3,286047000.0,N
1543427735.2,286046999.7,N
1543427755.0,286047001.5,N
1543427755.9,286047001.5,N
1543427775.8,286047000.2,N
1543427795.6,286046998.5,N
1543427815.4,286047000.7,N
1543427835.3,286046998.3,N
1543427855.1,286046999.2,N
1543427875.8,286046997.0,N
1543427895.7,286046999.1,N
1543427915.5,286046997.3,N
1543427935.4,286046999.6,N
1543427955.2,286046997.9,N
1543427975.0,286046997.3,N
1543427975.9,286046997.3,N
1543427995.8,286046997.1,N
